| time (UTC) | temp C | wind direction | speed KPH | gust KPH | rain 1hr cm | rain 24hr cm | rain mn cm | humidity % | barometer mb |
| 20260502160318 | 15 | 222 | 6.4 | 8.0 | 0.00 | 0.00 | 0.00 | 40 | 1017.2 |
| 20260502152247 | 14 | 278 | 4.8 | 4.8 | 0.00 | 0.00 | 0.00 | 39 | 1017.5 |
| 20260502151744 | 13 | 297 | 8.0 | 12.9 | 0.00 | 0.00 | 0.00 | 39 | 1017.9 |
| 20260502151241 | 13 | 297 | 4.8 | 4.8 | 0.00 | 0.00 | 0.00 | 40 | 1017.9 |
| 20260502150739 | 13 | 283 | 6.4 | 8.0 | 0.00 | 0.00 | 0.00 | 39 | 1017.9 |
| 20260502150236 | 13 | 269 | 3.2 | 3.2 | 0.00 | 0.00 | 0.00 | 41 | 1017.9 |
| 20260502130624 | 8 | 328 | 1.6 | 1.6 | 0.00 | 0.00 | 0.00 | 53 | 1019.0 |
| 20260502130122 | 8 | 318 | 0.0 | 0.0 | 0.00 | 0.00 | 0.00 | 53 | 1019.0 |
| 20260502123607 | 6 | 254 | 3.2 | 3.2 | 0.00 | 0.00 | 0.00 | 57 | 1018.6 |
| 20260502123104 | 6 | 242 | 3.2 | 3.2 | 0.00 | 0.00 | 0.00 | 56 | 1018.6 |
| 20260502122600 | 6 | 240 | 3.2 | 3.2 | 0.00 | 0.00 | 0.00 | 57 | 1019.0 |
| 20260502122057 | 6 | 310 | 1.6 | 1.6 | 0.00 | 0.00 | 0.00 | 57 | 1018.6 |
| 20260502121555 | 5 | 201 | 4.8 | 9.7 | 0.00 | 0.00 | 0.00 | 58 | 1019.0 |
| 20260502121052 | 5 | 244 | 1.6 | 1.6 | 0.00 | 0.00 | 0.00 | 58 | 1019.0 |
| 20260502120548 | 5 | 248 | 3.2 | 3.2 | 0.00 | 0.00 | 0.00 | 60 | 1018.6 |
| 20260502115544 | 4 | 315 | 0.0 | 1.6 | 0.00 | 0.00 | 0.00 | 63 | 1019.3 |
| 20260502115039 | 3 | 313 | 0.0 | 0.0 | 0.00 | 0.00 | 0.00 | 64 | 1019.0 |
| 20260502114536 | 3 | 298 | 0.0 | 1.6 | 0.00 | 0.00 | 0.00 | 65 | 1019.0 |
| 20260502114033 | 3 | 311 | 0.0 | 0.0 | 0.00 | 0.00 | 0.00 | 65 | 1019.0 |
| 20260502113531 | 3 | 310 | 0.0 | 0.0 | 0.00 | 0.00 | 0.00 | 66 | 1019.0 |
| 20260502113029 | 3 | 308 | 0.0 | 0.0 | 0.00 | 0.00 | 0.00 | 66 | 1019.0 |
| 20260502112526 | 2 | 306 | 1.6 | 3.2 | 0.00 | 0.00 | 0.00 | 67 | 1019.0 |
| 20260502112024 | 2 | 302 | 0.0 | 0.0 | 0.00 | 0.00 | 0.00 | 67 | 1019.0 |
| 20260502111521 | 2 | 294 | 0.0 | 1.6 | 0.00 | 0.00 | 0.00 | 66 | 1019.0 |
| 20260502111018 | 2 | 283 | 3.2 | 3.2 | 0.00 | 0.00 | 0.00 | 67 | 1019.3 |
| 20260502110515 | 2 | 306 | 1.6 | 1.6 | 0.00 | 0.00 | 0.00 | 67 | 1019.3 |
| 20260502110013 | 2 | 309 | 1.6 | 1.6 | 0.00 | 0.00 | 0.00 | 67 | 1019.3 |
| 20260502105510 | 2 | 308 | 0.0 | 1.6 | 0.00 | 0.00 | 0.00 | 68 | 1019.3 |
| 20260502105008 | 2 | 307 | 0.0 | 0.0 | 0.00 | 0.00 | 0.00 | 67 | 1019.0 |
| 20260502104505 | 2 | 296 | 1.6 | 1.6 | 0.00 | 0.00 | 0.00 | 67 | 1019.3 |
| 20260502104002 | 2 | 310 | 0.0 | 1.6 | 0.00 | 0.00 | 0.00 | 69 | 1019.3 |
| 20260502103459 | 2 | 310 | 0.0 | 0.0 | 0.00 | 0.00 | 0.00 | 70 | 1019.3 |
| 20260502102956 | 2 | 309 | 0.0 | 0.0 | 0.00 | 0.00 | 0.00 | 70 | 1019.3 |
| 20260502102453 | 2 | 308 | 0.0 | 0.0 | 0.00 | 0.00 | 0.00 | 69 | 1019.3 |
| 20260502101950 | 3 | 306 | 0.0 | 0.0 | 0.00 | 0.00 | 0.00 | 67 | 1019.3 |
| 20260502101449 | 3 | 303 | 0.0 | 0.0 | 0.00 | 0.00 | 0.00 | 67 | 1019.3 |
| 20260502100947 | 3 | 298 | 0.0 | 0.0 | 0.00 | 0.00 | 0.00 | 67 | 1019.3 |
| 20260502100445 | 3 | 285 | 0.0 | 0.0 | 0.00 | 0.00 | 0.00 | 66 | 1019.3 |
| 20260502091420 | 3 | 307 | 0.0 | 1.6 | 0.00 | 0.00 | 0.00 | 67 | 1019.6 |
| 20260502090916 | 3 | 312 | 0.0 | 1.6 | 0.00 | 0.00 | 0.00 | 67 | 1019.3 |
| 20260502090414 | 3 | 311 | 0.0 | 1.6 | 0.00 | 0.00 | 0.00 | 67 | 1019.3 |
| 20260502071308 | 3 | 319 | 0.0 | 0.0 | 0.00 | 0.00 | 0.00 | 68 | 1019.3 |
| 20260502070807 | 3 | 319 | 0.0 | 0.0 | 0.00 | 0.00 | 0.00 | 68 | 1019.6 |
| 20260502070304 | 2 | 319 | 0.0 | 0.0 | 0.00 | 0.00 | 0.00 | 69 | 1019.6 |
| 20260502065803 | 2 | 319 | 0.0 | 0.0 | 0.00 | 0.00 | 0.00 | 69 | 1019.6 |
| 20260502065300 | 2 | 319 | 0.0 | 0.0 | 0.00 | 0.00 | 0.00 | 69 | 1019.6 |
| 20260502064758 | 2 | 319 | 0.0 | 0.0 | 0.00 | 0.00 | 0.00 | 69 | 1019.6 |
| 20260502064255 | 3 | 319 | 0.0 | 0.0 | 0.00 | 0.00 | 0.00 | 68 | 1019.6 |
| 20260502063753 | 3 | 318 | 0.0 | 0.0 | 0.00 | 0.00 | 0.00 | 67 | 1019.6 |
| 20260502063251 | 3 | 319 | 0.0 | 0.0 | 0.00 | 0.00 | 0.00 | 67 | 1020.0 |
| 20260502062748 | 3 | 319 | 0.0 | 0.0 | 0.00 | 0.00 | 0.00 | 67 | 1020.0 |
| 20260502062245 | 3 | 319 | 0.0 | 0.0 | 0.00 | 0.00 | 0.00 | 66 | 1019.6 |
| 20260502061744 | 3 | 319 | 0.0 | 0.0 | 0.00 | 0.00 | 0.00 | 66 | 1019.6 |
| 20260502061242 | 3 | 320 | 0.0 | 0.0 | 0.00 | 0.00 | 0.00 | 66 | 1020.0 |
| 20260502060741 | 3 | 319 | 0.0 | 0.0 | 0.00 | 0.00 | 0.00 | 65 | 1019.6 |
| 20260502060237 | 3 | 320 | 0.0 | 0.0 | 0.00 | 0.00 | 0.00 | 65 | 1020.0 |
| 20260502055736 | 3 | 320 | 0.0 | 0.0 | 0.00 | 0.00 | 0.00 | 66 | 1020.0 |
| 20260502055233 | 3 | 320 | 0.0 | 0.0 | 0.00 | 0.00 | 0.00 | 66 | 1019.6 |
| 20260502054732 | 3 | 320 | 0.0 | 0.0 | 0.00 | 0.00 | 0.00 | 67 | 1020.0 |
| 20260502054229 | 2 | 320 | 0.0 | 0.0 | 0.00 | 0.00 | 0.00 | 67 | 1020.0 |
| 20260502053727 | 3 | 319 | 0.0 | 0.0 | 0.00 | 0.00 | 0.00 | 67 | 1020.0 |
| 20260502053224 | 3 | 319 | 0.0 | 0.0 | 0.00 | 0.00 | 0.00 | 67 | 1020.0 |
| 20260502052722 | 3 | 319 | 0.0 | 0.0 | 0.00 | 0.00 | 0.00 | 67 | 1020.0 |
| 20260502052219 | 2 | 319 | 0.0 | 0.0 | 0.00 | 0.00 | 0.00 | 67 | 1019.6 |
| 20260502051717 | 2 | 320 | 0.0 | 0.0 | 0.00 | 0.00 | 0.00 | 68 | 1019.6 |
| 20260502051215 | 3 | 319 | 0.0 | 0.0 | 0.00 | 0.00 | 0.00 | 68 | 1020.0 |
| 20260502050711 | 2 | 319 | 0.0 | 0.0 | 0.00 | 0.00 | 0.00 | 68 | 1019.6 |
| 20260502050208 | 2 | 319 | 0.0 | 0.0 | 0.00 | 0.00 | 0.00 | 69 | 1020.0 |
| 20260502045705 | 2 | 319 | 0.0 | 0.0 | 0.00 | 0.00 | 0.00 | 69 | 1020.0 |
| 20260502045202 | 2 | 320 | 0.0 | 0.0 | 0.00 | 0.00 | 0.00 | 69 | 1020.0 |
| 20260502044658 | 3 | 319 | 0.0 | 0.0 | 0.00 | 0.00 | 0.00 | 68 | 1020.0 |
| 20260502044154 | 3 | 319 | 0.0 | 0.0 | 0.00 | 0.00 | 0.00 | 68 | 1020.0 |
| 20260502043652 | 3 | 319 | 0.0 | 1.6 | 0.00 | 0.00 | 0.00 | 66 | 1020.0 |
| 20260502043150 | 3 | 319 | 0.0 | 0.0 | 0.00 | 0.00 | 0.00 | 66 | 1020.0 |
| 20260502042649 | 3 | 319 | 0.0 | 0.0 | 0.00 | 0.00 | 0.00 | 65 | 1020.0 |
| 20260502042146 | 3 | 320 | 0.0 | 0.0 | 0.00 | 0.00 | 0.00 | 67 | 1020.0 |
| 20260502041644 | 3 | 320 | 0.0 | 0.0 | 0.00 | 0.00 | 0.00 | 67 | 1020.0 |
| 20260502041141 | 3 | 320 | 0.0 | 0.0 | 0.00 | 0.00 | 0.00 | 68 | 1019.6 |
| 20260502040638 | 3 | 320 | 0.0 | 0.0 | 0.00 | 0.00 | 0.00 | 67 | 1020.0 |
| 20260502040135 | 3 | 319 | 0.0 | 0.0 | 0.00 | 0.00 | 0.00 | 67 | 1019.6 |
| 20260502035631 | 3 | 320 | 0.0 | 0.0 | 0.00 | 0.00 | 0.00 | 67 | 1020.0 |
| 20260502035128 | 3 | 320 | 0.0 | 0.0 | 0.00 | 0.00 | 0.00 | 66 | 1020.0 |
| 20260502034626 | 4 | 319 | 0.0 | 0.0 | 0.00 | 0.00 | 0.00 | 66 | 1020.0 |
| 20260502034124 | 4 | 319 | 0.0 | 0.0 | 0.00 | 0.00 | 0.00 | 64 | 1020.0 |
| 20260502033622 | 5 | 319 | 0.0 | 0.0 | 0.00 | 0.00 | 0.00 | 62 | 1020.0 |
| 20260502033119 | 5 | 319 | 0.0 | 0.0 | 0.00 | 0.00 | 0.00 | 62 | 1020.0 |
| 20260502032615 | 5 | 319 | 0.0 | 0.0 | 0.00 | 0.00 | 0.00 | 61 | 1020.0 |
| 20260502032111 | 5 | 319 | 0.0 | 0.0 | 0.00 | 0.00 | 0.00 | 60 | 1020.0 |
| 20260502031610 | 5 | 319 | 1.6 | 1.6 | 0.00 | 0.00 | 0.00 | 60 | 1020.0 |
| 20260502031107 | 5 | 319 | 0.0 | 0.0 | 0.00 | 0.00 | 0.00 | 59 | 1019.6 |
| 20260502030606 | 6 | 320 | 0.0 | 0.0 | 0.00 | 0.00 | 0.00 | 58 | 1019.6 |
| 20260502025600 | 6 | 319 | 0.0 | 0.0 | 0.00 | 0.00 | 0.00 | 55 | 1020.0 |
| 20260502025058 | 6 | 317 | 1.6 | 1.6 | 0.00 | 0.00 | 0.00 | 53 | 1019.6 |
| 20260502024556 | 7 | 318 | 0.0 | 0.0 | 0.00 | 0.00 | 0.00 | 52 | 1019.6 |
| 20260502024054 | 7 | 319 | 1.6 | 1.6 | 0.00 | 0.00 | 0.00 | 52 | 1020.0 |
| 20260502023551 | 7 | 317 | 1.6 | 1.6 | 0.00 | 0.00 | 0.00 | 52 | 1019.6 |
| 20260502023048 | 8 | 319 | 0.0 | 1.6 | 0.00 | 0.00 | 0.00 | 50 | 1019.6 |
| 20260502022545 | 8 | 321 | 4.8 | 4.8 | 0.00 | 0.00 | 0.00 | 49 | 1019.6 |
| 20260502022043 | 8 | 329 | 6.4 | 9.7 | 0.00 | 0.00 | 0.00 | 49 | 1019.6 |
| 20260502021540 | 8 | 317 | 8.0 | 8.0 | 0.00 | 0.00 | 0.00 | 49 | 1019.3 |
| 20260502021036 | 8 | 315 | 4.8 | 8.0 | 0.00 | 0.00 | 0.00 | 48 | 1019.6 |
| 20260502020534 | 8 | 315 | 1.6 | 1.6 | 0.00 | 0.00 | 0.00 | 48 | 1019.6 |
| 20260502020031 | 8 | 307 | 4.8 | 4.8 | 0.00 | 0.00 | 0.00 | 48 | 1019.3 |
| 20260502015529 | 8 | 322 | 6.4 | 8.0 | 0.00 | 0.00 | 0.00 | 47 | 1019.6 |
| 20260502015025 | 9 | 310 | 6.4 | 8.0 | 0.00 | 0.00 | 0.00 | 46 | 1019.3 |
| 20260502014522 | 9 | 327 | 8.0 | 9.7 | 0.00 | 0.00 | 0.00 | 46 | 1019.3 |
| 20260502014019 | 9 | 315 | 9.7 | 11.3 | 0.00 | 0.00 | 0.00 | 45 | 1019.6 |
| 20260502013514 | 10 | 323 | 11.3 | 14.5 | 0.00 | 0.00 | 0.00 | 45 | 1019.3 |
| 20260502013011 | 10 | 330 | 9.7 | 11.3 | 0.00 | 0.00 | 0.00 | 44 | 1019.6 |
| 20260502012508 | 10 | 330 | 9.7 | 11.3 | 0.00 | 0.00 | 0.00 | 43 | 1019.6 |
| 20260502012006 | 10 | 324 | 9.7 | 11.3 | 0.00 | 0.00 | 0.00 | 42 | 1019.3 |
| 20260502011502 | 10 | 347 | 11.3 | 12.9 | 0.00 | 0.00 | 0.00 | 43 | 1019.3 |
| 20260502010959 | 10 | 327 | 9.7 | 11.3 | 0.00 | 0.00 | 0.00 | 42 | 1019.3 |
| 20260502010456 | 10 | 338 | 9.7 | 11.3 | 0.00 | 0.00 | 0.00 | 42 | 1019.0 |
| 20260502005952 | 10 | 304 | 6.4 | 9.7 | 0.00 | 0.00 | 0.00 | 41 | 1019.0 |
| 20260502005450 | 10 | 328 | 8.0 | 8.0 | 0.00 | 0.00 | 0.00 | 42 | 1019.0 |
| 20260502004948 | 10 | 323 | 11.3 | 11.3 | 0.00 | 0.00 | 0.00 | 40 | 1019.0 |
| 20260502004443 | 10 | 319 | 11.3 | 12.9 | 0.00 | 0.00 | 0.00 | 41 | 1019.3 |
| 20260502003941 | 11 | 320 | 6.4 | 8.0 | 0.00 | 0.00 | 0.00 | 41 | 1019.0 |
| 20260502003438 | 11 | 338 | 8.0 | 9.7 | 0.00 | 0.00 | 0.00 | 41 | 1019.0 |
| 20260502002934 | 11 | 353 | 14.5 | 16.1 | 0.00 | 0.00 | 0.00 | 40 | 1019.0 |
| 20260502002431 | 11 | 343 | 4.8 | 4.8 | 0.00 | 0.00 | 0.00 | 40 | 1019.0 |
| 20260502001929 | 11 | 347 | 8.0 | 9.7 | 0.00 | 0.00 | 0.00 | 39 | 1019.0 |
| 20260502001426 | 11 | 320 | 11.3 | 16.1 | 0.00 | 0.00 | 0.00 | 39 | 1019.0 |
| 20260502000924 | 11 | 325 | 16.1 | 16.1 | 0.00 | 0.00 | 0.00 | 39 | 1019.3 |
| 20260502000424 | 11 | 343 | 3.2 | 3.2 | 0.00 | 0.00 | 0.00 | 40 | 1019.0 |
| 20260501235918 | 11 | 341 | 8.0 | 9.7 | 0.00 | 0.00 | 0.00 | 39 | 1019.0 |
| 20260501235414 | 11 | 317 | 8.0 | 8.0 | 0.00 | 0.00 | 0.00 | 39 | 1019.0 |
| 20260501234909 | 11 | 9 | 6.4 | 8.0 | 0.00 | 0.00 | 0.00 | 40 | 1019.0 |
| 20260501234406 | 11 | 2 | 14.5 | 17.7 | 0.00 | 0.00 | 0.00 | 40 | 1019.3 |
| 20260501233904 | 11 | 7 | 8.0 | 9.7 | 0.00 | 0.00 | 0.00 | 39 | 1019.0 |
| 20260501233401 | 11 | 10 | 8.0 | 9.7 | 0.00 | 0.00 | 0.00 | 40 | 1019.3 |
| 20260501232857 | 11 | 344 | 8.0 | 9.7 | 0.00 | 0.00 | 0.00 | 39 | 1019.0 |
| 20260501232355 | 11 | 15 | 4.8 | 4.8 | 0.00 | 0.00 | 0.00 | 40 | 1019.3 |
| 20260501231852 | 11 | 350 | 9.7 | 12.9 | 0.00 | 0.00 | 0.00 | 40 | 1019.3 |
| 20260501231350 | 11 | 357 | 14.5 | 17.7 | 0.00 | 0.00 | 0.00 | 39 | 1019.3 |
| 20260501230848 | 11 | 344 | 4.8 | 4.8 | 0.00 | 0.00 | 0.00 | 39 | 1019.0 |
| 20260501230347 | 11 | 48 | 6.4 | 9.7 | 0.00 | 0.00 | 0.00 | 39 | 1019.0 |
| 20260501225843 | 11 | 351 | 6.4 | 9.7 | 0.00 | 0.00 | 0.00 | 40 | 1019.0 |
| 20260501225341 | 11 | 9 | 9.7 | 12.9 | 0.00 | 0.00 | 0.00 | 39 | 1019.0 |
| 20260501224837 | 11 | 33 | 8.0 | 12.9 | 0.00 | 0.00 | 0.00 | 41 | 1019.3 |
| 20260501224335 | 11 | 23 | 4.8 | 4.8 | 0.00 | 0.00 | 0.00 | 39 | 1019.3 |
| 20260501223831 | 11 | 6 | 6.4 | 11.3 | 0.00 | 0.00 | 0.00 | 42 | 1019.3 |
| 20260501223327 | 11 | 25 | 4.8 | 8.0 | 0.00 | 0.00 | 0.00 | 42 | 1019.0 |
| 20260501222823 | 10 | 347 | 9.7 | 12.9 | 0.00 | 0.00 | 0.00 | 43 | 1019.3 |
| 20260501222320 | 11 | 0 | 11.3 | 14.5 | 0.00 | 0.00 | 0.00 | 41 | 1019.0 |
| 20260501221817 | 11 | 0 | 9.7 | 11.3 | 0.00 | 0.00 | 0.00 | 41 | 1019.0 |
| 20260501221314 | 11 | 20 | 11.3 | 16.1 | 0.00 | 0.00 | 0.00 | 41 | 1019.0 |
| 20260501220812 | 11 | 349 | 6.4 | 9.7 | 0.00 | 0.00 | 0.00 | 42 | 1019.3 |
| 20260501220309 | 11 | 56 | 9.7 | 12.9 | 0.00 | 0.00 | 0.00 | 42 | 1019.3 |
| 20260501215806 | 12 | 319 | 12.9 | 14.5 | 0.00 | 0.00 | 0.00 | 42 | 1019.0 |
| 20260501215305 | 11 | 309 | 11.3 | 12.9 | 0.00 | 0.00 | 0.00 | 41 | 1019.3 |
| 20260501214757 | 11 | 338 | 14.5 | 22.5 | 0.00 | 0.00 | 0.00 | 42 | 1019.3 |
| 20260501214253 | 11 | 340 | 12.9 | 14.5 | 0.00 | 0.00 | 0.00 | 44 | 1019.0 |
| 20260501213749 | 11 | 328 | 0.0 | 1.6 | 0.00 | 0.00 | 0.00 | 45 | 1019.3 |
| 20260501213246 | 11 | 58 | 8.0 | 9.7 | 0.00 | 0.00 | 0.00 | 44 | 1019.3 |
| 20260501212742 | 11 | 345 | 9.7 | 11.3 | 0.00 | 0.00 | 0.00 | 42 | 1019.3 |
| 20260501212238 | 10 | 61 | 3.2 | 3.2 | 0.00 | 0.00 | 0.00 | 43 | 1019.3 |
| 20260501211736 | 10 | 349 | 4.8 | 8.0 | 0.00 | 0.00 | 0.00 | 43 | 1019.3 |
| 20260501211232 | 10 | 7 | 11.3 | 12.9 | 0.00 | 0.00 | 0.00 | 45 | 1019.6 |
| 20260501210730 | 10 | 345 | 8.0 | 9.7 | 0.00 | 0.00 | 0.00 | 45 | 1019.3 |
| 20260501210226 | 10 | 0 | 11.3 | 14.5 | 0.00 | 0.00 | 0.00 | 45 | 1019.6 |
| 20260501205723 | 10 | 21 | 8.0 | 9.7 | 0.00 | 0.00 | 0.00 | 45 | 1019.6 |
| 20260501205220 | 10 | 357 | 3.2 | 4.8 | 0.00 | 0.00 | 0.00 | 44 | 1019.3 |
| 20260501204717 | 11 | 8 | 16.1 | 22.5 | 0.00 | 0.00 | 0.00 | 45 | 1019.6 |
| 20260501204213 | 11 | 353 | 9.7 | 14.5 | 0.00 | 0.00 | 0.00 | 43 | 1019.3 |
| 20260501203709 | 10 | 322 | 12.9 | 14.5 | 0.00 | 0.00 | 0.00 | 46 | 1019.6 |
| 20260501203207 | 10 | 343 | 14.5 | 17.7 | 0.00 | 0.00 | 0.00 | 45 | 1019.6 |
| 20260501202704 | 10 | 333 | 11.3 | 14.5 | 0.00 | 0.00 | 0.00 | 45 | 1019.6 |
| 20260501202201 | 10 | 315 | 3.2 | 3.2 | 0.00 | 0.00 | 0.00 | 46 | 1019.6 |
| 20260501201657 | 10 | 335 | 9.7 | 11.3 | 0.00 | 0.00 | 0.00 | 45 | 1019.6 |
| 20260501201154 | 10 | 350 | 12.9 | 14.5 | 0.00 | 0.00 | 0.00 | 50 | 1020.0 |
| 20260501200651 | 9 | 346 | 16.1 | 17.7 | 0.00 | 0.00 | 0.00 | 48 | 1019.6 |
| 20260501200149 | 9 | 2 | 14.5 | 16.1 | 0.00 | 0.00 | 0.00 | 48 | 1019.6 |
| 20260501195646 | 9 | 28 | 11.3 | 14.5 | 0.00 | 0.00 | 0.00 | 46 | 1019.6 |
| 20260501195141 | 10 | 347 | 17.7 | 24.1 | 0.00 | 0.00 | 0.00 | 48 | 1019.6 |
| 20260501194637 | 10 | 354 | 14.5 | 20.9 | 0.00 | 0.00 | 0.00 | 46 | 1020.0 |
| 20260501194133 | 9 | 45 | 8.0 | 14.5 | 0.00 | 0.00 | 0.00 | 48 | 1020.0 |
| 20260501193631 | 9 | 17 | 11.3 | 12.9 | 0.00 | 0.00 | 0.00 | 49 | 1019.6 |
| 20260501193129 | 8 | 346 | 4.8 | 8.0 | 0.00 | 0.00 | 0.00 | 50 | 1020.0 |
| 20260501192626 | 9 | 35 | 14.5 | 20.9 | 0.00 | 0.00 | 0.00 | 49 | 1019.6 |
| 20260501192123 | 9 | 357 | 12.9 | 14.5 | 0.00 | 0.00 | 0.00 | 49 | 1020.0 |
| 20260501191620 | 10 | 19 | 4.8 | 4.8 | 0.00 | 0.00 | 0.00 | 47 | 1020.0 |
| 20260501191117 | 10 | 51 | 11.3 | 12.9 | 0.00 | 0.00 | 0.00 | 48 | 1019.6 |
| 20260501190614 | 9 | 346 | 9.7 | 12.9 | 0.00 | 0.00 | 0.00 | 50 | 1019.6 |
| 20260501190109 | 9 | 351 | 14.5 | 17.7 | 0.00 | 0.00 | 0.00 | 49 | 1020.0 |
| 20260501185605 | 9 | 50 | 4.8 | 8.0 | 0.00 | 0.00 | 0.00 | 48 | 1019.6 |
| 20260501185101 | 8 | 59 | 4.8 | 4.8 | 0.00 | 0.00 | 0.00 | 49 | 1019.6 |
| 20260501184557 | 8 | 28 | 11.3 | 12.9 | 0.00 | 0.00 | 0.00 | 51 | 1019.6 |
| 20260501184052 | 8 | 337 | 19.3 | 25.7 | 0.00 | 0.00 | 0.00 | 49 | 1020.0 |
| 20260501183549 | 8 | 350 | 8.0 | 11.3 | 0.00 | 0.00 | 0.00 | 50 | 1020.0 |
| 20260501183045 | 9 | 3 | 4.8 | 8.0 | 0.00 | 0.00 | 0.00 | 48 | 1020.0 |
| 20260501182542 | 8 | 327 | 14.5 | 16.1 | 0.00 | 0.00 | 0.00 | 50 | 1020.0 |
| 20260501182039 | 8 | 337 | 11.3 | 12.9 | 0.00 | 0.00 | 0.00 | 51 | 1019.6 |
| 20260501181536 | 8 | 1 | 8.0 | 11.3 | 0.00 | 0.00 | 0.00 | 51 | 1019.6 |
| 20260501181033 | 8 | 5 | 12.9 | 14.5 | 0.00 | 0.00 | 0.00 | 51 | 1019.6 |
| 20260501180531 | 8 | 285 | 12.9 | 14.5 | 0.00 | 0.00 | 0.00 | 52 | 1019.6 |
| 20260501180027 | 8 | 10 | 11.3 | 14.5 | 0.00 | 0.00 | 0.00 | 50 | 1020.0 |
| 20260501175524 | 8 | 355 | 14.5 | 16.1 | 0.00 | 0.00 | 0.00 | 52 | 1020.0 |
| 20260501175020 | 8 | 341 | 14.5 | 14.5 | 0.00 | 0.00 | 0.00 | 51 | 1019.6 |
| 20260501174518 | 8 | 56 | 4.8 | 8.0 | 0.00 | 0.00 | 0.00 | 52 | 1019.6 |
| 20260501174015 | 8 | 352 | 3.2 | 3.2 | 0.00 | 0.00 | 0.00 | 51 | 1020.0 |
| 20260501173512 | 8 | 8 | 12.9 | 20.9 | 0.00 | 0.00 | 0.00 | 49 | 1020.0 |
| 20260501173009 | 8 | 331 | 14.5 | 16.1 | 0.00 | 0.00 | 0.00 | 51 | 1020.0 |
| 20260501172504 | 8 | 21 | 12.9 | 16.1 | 0.00 | 0.00 | 0.00 | 53 | 1020.0 |
| 20260501172000 | 8 | 77 | 8.0 | 11.3 | 0.00 | 0.00 | 0.00 | 52 | 1020.0 |
| 20260501171456 | 8 | 354 | 14.5 | 17.7 | 0.00 | 0.00 | 0.00 | 51 | 1020.0 |
| 20260501170953 | 8 | 339 | 14.5 | 17.7 | 0.00 | 0.00 | 0.00 | 53 | 1020.0 |
| 20260501170450 | 8 | 34 | 8.0 | 11.3 | 0.00 | 0.00 | 0.00 | 51 | 1019.6 |
| 20260501165947 | 7 | 353 | 11.3 | 14.5 | 0.00 | 0.00 | 0.00 | 54 | 1020.0 |
| 20260501165445 | 8 | 354 | 16.1 | 17.7 | 0.00 | 0.00 | 0.00 | 54 | 1020.0 |
| 20260501164942 | 7 | 359 | 11.3 | 12.9 | 0.00 | 0.00 | 0.00 | 54 | 1020.0 |
| 20260501164440 | 8 | 343 | 14.5 | 17.7 | 0.00 | 0.00 | 0.00 | 55 | 1020.0 |
| 20260501163937 | 8 | 342 | 16.1 | 17.7 | 0.00 | 0.00 | 0.00 | 52 | 1020.0 |
| 20260501163432 | 8 | 13 | 6.4 | 9.7 | 0.00 | 0.00 | 0.00 | 51 | 1020.0 |
| 20260501162929 | 7 | 44 | 4.8 | 11.3 | 0.00 | 0.00 | 0.00 | 58 | 1020.0 |
| 20260501162426 | 7 | 357 | 14.5 | 16.1 | 0.00 | 0.00 | 0.00 | 59 | 1020.0 |
| 20260501161923 | 7 | 0 | 9.7 | 12.9 | 0.00 | 0.00 | 0.00 | 56 | 1020.0 |
| 20260501161420 | 7 | 313 | 11.3 | 12.9 | 0.00 | 0.00 | 0.00 | 61 | 1019.6 |
| 20260501160917 | 7 | 346 | 12.9 | 16.1 | 0.00 | 0.00 | 0.00 | 60 | 1020.0 |
| 20260501160413 | 7 | 11 | 8.0 | 9.7 | 0.00 | 0.00 | 0.00 | 61 | 1020.0 |